(266974) = 2010 VK133 = 1993 TR27 = 2003 QC120

Discovered at La Silla on 1993-10-09 by E. W. Elst.

Orbit

Orbit type: Main Belt

Note: WebGL enabled browser required.

epoch2022-01-21.0
epoch JD2459600.5
perihelion date2020-10-23.98781
perihelion JD2459146.48781
argument of perihelion (°)293.58901
ascending node (°)84.48367
inclination (°)2.53785
eccentricity0.2585827
perihelion distance (AU)1.6705150
Tisserand w.r.t. Jupiter3.6
ΔV w.r.t. Earth (km/sec)8.0
semimajor axis (AU)2.2531374
mean anomaly (°)132.30914
mean daily motion (°/day)0.29142200
aphelion distance (AU)2.836
period (years)3.38
P-vector [x]0.94976905
P-vector [y]0.30084506
P-vector [z]0.08620328
Q-vector [x]-0.30983256
Q-vector [y]0.86513394
Q-vector [z]0.39439454
absolute magnitude18.13
phase slope0.15
uncertainty0
referenceMPO 696527
observations used345
oppositions10
arc length (days)9988
first opposition used1993
last opposition used2021
residual rms (arc-secs)0.78
perturbers coarse indicatorM-v
perturbers precise indicator003Ek
first observation date used1993-10-09.0
last observation date used2021-02-12.0
computer namePan
JD of orbit computation2456494.370533
perihelion JD uncertainty (days)6.2525E-05
argument of perihelion uncertainty (°)1.3376E-04
ascending node uncertainty (°)1.3091E-04
inclination uncertainty (°)8.6029E-06
eccentricity uncertainty 6.0878E-08
perihelion distance uncertainty (AU)1.3759E-07
Minimum Orbit Intersection Distances (in AU)
for orbit epoch: 2459200.5, reference: E2021-B55
Mercury1.32536
Venus0.9452
Earth0.67314
Mars0.24725
Jupiter2.62179
Saturn6.71662
Uranus15.549
Neptune27.786

Observations

352 total observations over interval: 1993 10 09.19236 – 2021 02 12.113887
These data are available for download (format description).

Date (UT) J2000 RA J2000 Dec Magn Location Ref
1993 10 09.19236 01 40 26.28 +04 19 13.4   809 – European Southern Observatory, La Silla MPC 23094
1993 10 09.20556 01 40 25.66 +04 19 10.6   809 – European Southern Observatory, La Silla MPC 23094
1993 10 09.21875 01 40 24.99 +04 19 08.4   809 – European Southern Observatory, La Silla MPC 23094
1993 10 11.15972 01 39 00.16 +04 13 06.0 18.5   809 – European Southern Observatory, La Silla MPC 23094
1993 10 11.17292 01 38 59.44 +04 13 04.1   809 – European Southern Observatory, La Silla MPC 23094
1993 10 11.18611 01 38 58.84 +04 13 00.4   809 – European Southern Observatory, La Silla MPC 23094
1993 10 20.20000 01 31 59.68 +03 48 44.1 18.5   809 – European Southern Observatory, La Silla MPC 23094
1993 10 20.21319 01 31 58.97 +03 48 42.6   809 – European Southern Observatory, La Silla MPC 23094
1993 10 20.22639 01 31 58.24 +03 48 39.0   809 – European Southern Observatory, La Silla MPC 23094
2000 11 24.48419 06 48 49.04 +22 45 34.7 21.4 V 691 – Steward Observatory, Kitt Peak-Spacewatch MPS 367219
2000 11 24.49910 06 48 48.54 +22 45 36.7 21.0 V 691 – Steward Observatory, Kitt Peak-Spacewatch MPS 367219
2000 11 24.51404 06 48 48.02 +22 45 39.0 21.1 V 691 – Steward Observatory, Kitt Peak-Spacewatch MPS 367219
2003 08 26.31477 22 23 19.30 -15 53 46.6 18.8   704 – Lincoln Laboratory ETS, New Mexico MPC 64685
2003 08 26.32738 22 23 18.64 -15 53 51.3 19.0   704 – Lincoln Laboratory ETS, New Mexico MPC 64685
2003 08 26.34023 22 23 17.96 -15 53 55.9 19.1   704 – Lincoln Laboratory ETS, New Mexico MPC 64685
2003 08 31.27676 22 19 08.56 -16 23 33.8   704 – Lincoln Laboratory ETS, New Mexico MPS 407118
2003 08 31.28862 22 19 07.87 -16 23 36.7   704 – Lincoln Laboratory ETS, New Mexico MPS 407118
2003 08 31.30037 22 19 07.22 -16 23 41.4   704 – Lincoln Laboratory ETS, New Mexico MPS 407118
2003 08 31.31221 22 19 06.55 -16 23 47.3   704 – Lincoln Laboratory ETS, New Mexico MPS 407118
2007 12 31.41978 09 32 02.69 +17 17 28.2 20.9 V 691 – Steward Observatory, Kitt Peak-Spacewatch MPS 362837
2007 12 31.43741 09 32 02.12 +17 17 32.8 21.3 V 691 – Steward Observatory, Kitt Peak-Spacewatch MPS 362837
2007 12 31.45505 09 32 01.50 +17 17 37.4 21.6 V 691 – Steward Observatory, Kitt Peak-Spacewatch MPS 362837
2008 01 13.37259 09 22 28.27 +18 24 16.8   691 – Steward Observatory, Kitt Peak-Spacewatch MPS 362837
2008 01 13.39025 09 22 27.28 +18 24 23.0   691 – Steward Observatory, Kitt Peak-Spacewatch MPS 362837
2008 01 13.40791 09 22 26.25 +18 24 29.2   691 – Steward Observatory, Kitt Peak-Spacewatch MPS 362837
2008 02 01.26543 09 01 56.06 +20 15 51.8 20.8 V G96 – Mt. Lemmon Survey MPS 362837
2008 02 01.27446 09 01 55.45 +20 15 54.2 20.2 V G96 – Mt. Lemmon Survey MPS 362837
2008 02 01.28027 09 01 54.98 +20 15 56.7 20.4 V G96 – Mt. Lemmon Survey MPS 362837
2008 02 01.28617 09 01 54.51 +20 15 58.7 21.1 V G96 – Mt. Lemmon Survey MPS 362837
2008 03 12.19906 08 30 14.86 +22 12 02.4 22.7 V G96 – Mt. Lemmon Survey MPS 362837
2008 03 12.20792 08 30 14.76 +22 12 02.4 21.7 V G96 – Mt. Lemmon Survey MPS 362837
2008 03 12.21675 08 30 14.61 +22 12 02.2 22.7 V G96 – Mt. Lemmon Survey MPS 362837
2008 03 12.22550 08 30 14.54 +22 12 03.0 21.4 V G96 – Mt. Lemmon Survey MPS 362837
2010 10 28.21681 04 01 38.73 +17 04 52.7 19.7 V 691 – Steward Observatory, Kitt Peak-Spacewatch MPS 357650
2010 10 28.23455 04 01 38.00 +17 04 52.8 19.8 V 691 – Steward Observatory, Kitt Peak-Spacewatch MPS 357650
2010 10 28.25227 04 01 37.34 +17 04 52.6 19.7 V 691 – Steward Observatory, Kitt Peak-Spacewatch MPS 357650
2010 11 01.20730 03 58 59.99 +17 03 34.6   691 – Steward Observatory, Kitt Peak-Spacewatch MPS 357650
2010 11 01.22498 03 58 59.16 +17 03 34.5   691 – Steward Observatory, Kitt Peak-Spacewatch MPS 357650
2010 11 01.24265 03 58 58.34 +17 03 34.3   691 – Steward Observatory, Kitt Peak-Spacewatch MPS 357650
2010 11 01.40257 03 58 50.59 +17 03 30.6 19.1 V 703 – Catalina Sky Survey MPS 357650
2010 11 01.41118 03 58 50.16 +17 03 30.9 18.9 V 703 – Catalina Sky Survey MPS 357650
2010 11 01.41944 03 58 49.87 +17 03 31.4 19.0 V 703 – Catalina Sky Survey MPS 357650
2010 11 01.42776 03 58 49.36 +17 03 30.1 19.1 V 703 – Catalina Sky Survey MPS 357650
2010 11 05.28844 03 55 44.38 +17 01 38.0   704 – Lincoln Laboratory ETS, New Mexico MPS 407472
2010 11 05.31357 03 55 42.93 +17 01 37.1   704 – Lincoln Laboratory ETS, New Mexico MPS 407472
2010 11 05.32622 03 55 42.25 +17 01 38.2   704 – Lincoln Laboratory ETS, New Mexico MPS 407472
2010 11 05.32638 03 55 42.20 +17 01 37.3   704 – Lincoln Laboratory ETS, New Mexico MPS 407472
2010 11 05.33889 03 55 41.52 +17 01 36.2   704 – Lincoln Laboratory ETS, New Mexico MPS 407472
2010 11 10.32957 03 51 07.84 +16 58 39.7 20.3 V 703 – Catalina Sky Survey MPS 357650
2010 11 10.33024 03 51 07.71 +16 58 39.9   704 – Lincoln Laboratory ETS, New Mexico MPS 407118
2010 11 10.33470 03 51 07.48 +16 58 39.2 19.0 V 703 – Catalina Sky Survey MPS 357650
2010 11 10.33985 03 51 07.12 +16 58 39.5 19.2 V 703 – Catalina Sky Survey MPS 357651
2010 11 10.34298 03 51 06.89 +16 58 39.1   704 – Lincoln Laboratory ETS, New Mexico MPS 407118
2010 11 10.34501 03 51 06.87 +16 58 38.7 19.1 V 703 – Catalina Sky Survey MPS 357651
2010 11 10.35573 03 51 06.08 +16 58 37.8   704 – Lincoln Laboratory ETS, New Mexico MPS 407118
2010 11 10.36862 03 51 05.35 +16 58 38.3   704 – Lincoln Laboratory ETS, New Mexico MPS 407118
2010 11 10.38140 03 51 04.50 +16 58 38.0   704 – Lincoln Laboratory ETS, New Mexico MPS 407118
2010 11 11.57277 03 49 55.75 +16 57 51.7 19.4 R D29 – Purple Mountain Observatory, XuYi Station MPS 357651
2010 11 11.58491 03 49 55.03 +16 57 51.1 19.3 R D29 – Purple Mountain Observatory, XuYi Station MPS 357651
2010 11 11.59699 03 49 54.23 +16 57 51.2 18.3 R D29 – Purple Mountain Observatory, XuYi Station MPS 357651
2010 11 11.60917 03 49 53.50 +16 57 50.9 19.0 R D29 – Purple Mountain Observatory, XuYi Station MPS 357651
2010 11 12.16800 03 49 20.71 +16 57 29.6 19.5 V 691 – Steward Observatory, Kitt Peak-Spacewatch MPS 357651
2010 11 12.18569 03 49 19.62 +16 57 29.1 19.3 V 691 – Steward Observatory, Kitt Peak-Spacewatch MPS 357651
2010 11 12.20391 03 49 18.48 +16 57 28.4 19.8 V 691 – Steward Observatory, Kitt Peak-Spacewatch MPS 357651
2010 11 12.38094 03 49 07.28 +16 57 22.2 18.7 V G96 – Mt. Lemmon Survey MPS 357651
2010 11 12.38836 03 49 06.81 +16 57 22.0 18.9 V G96 – Mt. Lemmon Survey MPS 357651
2010 11 12.39582 03 49 06.34 +16 57 21.6 18.8 V G96 – Mt. Lemmon Survey MPS 357651
2010 11 12.40336 03 49 05.88 +16 57 21.2 18.8 V G96 – Mt. Lemmon Survey MPS 357651
2010 11 14.86920 03 46 38.24 +16 55 46.8 19.3 V A50 – Andrushivka Astronomical Observatory MPS 357651
2010 11 14.88734 03 46 37.08 +16 55 46.7 19.0 V A50 – Andrushivka Astronomical Observatory MPS 357651
2010 11 14.90549 03 46 35.91 +16 55 46.5 19.0 V A50 – Andrushivka Astronomical Observatory MPS 357651
2010 11 26.22590 03 35 20.68 +16 50 57.0 18.8 V G96 – Mt. Lemmon Survey MPS 357651
2010 11 26.23281 03 35 20.25 +16 50 57.0 19.0 V G96 – Mt. Lemmon Survey MPS 357651
2010 11 26.23978 03 35 19.86 +16 50 57.0 19.0 V G96 – Mt. Lemmon Survey MPS 357651
2010 11 26.24664 03 35 19.42 +16 50 57.0 19.0 V G96 – Mt. Lemmon Survey MPS 357651
2010 12 03.27965 03 29 17.59 +16 51 41.2 20.0   704 – Lincoln Laboratory ETS, New Mexico MPS 359277
2010 12 03.29292 03 29 16.96 +16 51 41.3 20.0   704 – Lincoln Laboratory ETS, New Mexico MPS 359277
2010 12 03.30620 03 29 16.29 +16 51 42.4 19.9   704 – Lincoln Laboratory ETS, New Mexico MPS 359277
2010 12 03.31992 03 29 15.55 +16 51 42.7 19.8   704 – Lincoln Laboratory ETS, New Mexico MPS 359277
2010 12 12.82758 03 23 30.38 +17 00 16.2 20.1 R J04 – ESA Optical Ground Station, Tenerife MPS 363406
2010 12 12.84899 03 23 29.76 +17 00 18.5 20.1 R J04 – ESA Optical Ground Station, Tenerife MPS 363406
2010 12 12.87040 03 23 29.11 +17 00 20.1 20.3 R J04 – ESA Optical Ground Station, Tenerife MPS 363406
2010 12 13.17642 03 23 21.15 +17 00 46.1 19.8 V G96 – Mt. Lemmon Survey MPS 359277
2010 12 13.18164 03 23 20.97 +17 00 46.6 19.8 V G96 – Mt. Lemmon Survey MPS 359277
2010 12 13.18696 03 23 20.83 +17 00 47.1 19.5 V G96 – Mt. Lemmon Survey MPS 359277
